Weather History for KRRL - October, 2013

Change the Weather History Date:

Tuesday, October 1, 2013

  Actual Average Record
Temperature  
Mean Temperature 59 °F -  
Max Temperature 76 °F 65 °F 82 °F (1932)
Min Temperature 41 °F 40 °F 24 °F (1918)
Degree Days  
Heating Degree Days 6    
Growing Degree Days 9 (Base 50)    
Moisture  
Dew Point 48 °F    
Average Humidity 64    
Maximum Humidity 87    
Minimum Humidity 28    
Precipitation  
Precipitation 0.00 in - - ()
Sea Level Pressure  
Sea Level Pressure 29.80 in    
Wind  
Wind Speed 7 mph (WSW)    
Max Wind Speed 18 mph    
Max Gust Speed 24 mph    
Visibility 10 miles    
Events      
Averages and records for this station are not official NWS values.
T = Trace of Precipitation, MM = Missing Value Source: NWS Daily Summary

Daily Weather History Graph

Daily Weather History Graph

Search for Another Location

Airport or City:

Trip Planner

Search our weather history database for the weather conditions in past years. The results will help you decide how hot, cold, wet, or windy it might be!

Date:

Astronomy

Oct. 01, 2013 Rise Set
Actual Time 6:57 AM CDT 6:38 PM CDT
Civil Twilight 6:27 AM CDT 7:08 PM CDT
Nautical Twilight 5:53 AM CDT 7:42 PM CDT
Astronomical Twilight 5:18 AM CDT 8:16 PM CDT
Moon 3:23 AM CDT (10/1) 4:48 PM CDT (10/1)
Length of Visible Light 12h 40m
Length of Day
11h 41m
Waning Crescent, 12% of the Moon is Illuminated
Oct 1
Waning Crescent
Oct 4
New
Oct 11
First Quarter
Oct 18
Full
Oct 26
Last Quarter

Hourly Weather History & Observations

Time (CDT) Temp. Windchill Dew Point Humidity Pressure Visibility Wind Dir Wind Speed Gust Speed Precip Events Conditions
12:15 AM 54.7 °F - 47.3 °F 76% 29.76 in 10.0 mi SSE 4.6 mph - N/A   Clear
12:35 AM 54.5 °F - 47.3 °F 77% 29.76 in 10.0 mi SSE 3.5 mph - N/A   Clear
12:55 AM 56.1 °F - 47.7 °F 73% 29.75 in 10.0 mi SSE 4.6 mph - N/A   Clear
1:15 AM 58.1 °F - 48.2 °F 70% 29.75 in 10.0 mi Calm Calm - N/A   Clear
1:35 AM 58.1 °F - 48.4 °F 70% 29.75 in 10.0 mi Calm Calm - N/A   Clear
1:55 AM 58.5 °F - 48.7 °F 70% 29.75 in 10.0 mi Calm Calm - N/A   Clear
2:15 AM 58.5 °F - 49.3 °F 72% 29.75 in 10.0 mi SSW 4.6 mph - N/A   Clear
2:35 AM 58.5 °F - 49.5 °F 72% 29.74 in 10.0 mi South 3.5 mph - N/A   Clear
2:55 AM 58.5 °F - 50.0 °F 73% 29.73 in 10.0 mi South 4.6 mph - N/A   Clear
3:15 AM 59.2 °F - 50.5 °F 73% 29.73 in 10.0 mi SSW 4.6 mph - N/A   Scattered Clouds
3:35 AM 59.0 °F - 50.9 °F 74% 29.73 in 10.0 mi SSW 4.6 mph - N/A   Scattered Clouds
3:55 AM 58.8 °F - 51.1 °F 75% 29.73 in 10.0 mi SSW 5.8 mph - N/A   Clear
4:15 AM 59.2 °F - 51.8 °F 77% 29.73 in 10.0 mi SSW 3.5 mph - N/A   Clear
4:35 AM 58.5 °F - 52.0 °F 79% 29.72 in 10.0 mi South 4.6 mph - N/A   Clear
4:55 AM 58.3 °F - 52.3 °F 81% 29.73 in 10.0 mi SSW 6.9 mph - N/A   Clear
5:15 AM 58.6 °F - 52.7 °F 81% 29.73 in 10.0 mi SSW 6.9 mph - N/A   Clear
5:35 AM 58.1 °F - 53.1 °F 83% 29.73 in 10.0 mi South 5.8 mph - N/A   Clear
5:55 AM 58.1 °F - 53.6 °F 85% 29.72 in 10.0 mi South 6.9 mph - N/A   Clear
6:15 AM 58.1 °F - 53.8 °F 86% 29.72 in 10.0 mi SSW 8.1 mph - N/A   Clear
6:35 AM 58.3 °F - 54.0 °F 86% 29.71 in 10.0 mi South 6.9 mph - N/A   Clear
6:55 AM 58.3 °F - 54.5 °F 87% 29.71 in 10.0 mi SSW 5.8 mph - N/A   Clear
7:15 AM 59.2 °F - 54.7 °F 85% 29.71 in 10.0 mi SSW 12.7 mph 17.3 mph N/A   Clear
7:35 AM 59.2 °F - 55.0 °F 86% 29.72 in 10.0 mi SW 6.9 mph - N/A   Clear
7:55 AM 59.9 °F - 55.2 °F 84% 29.72 in 10.0 mi SW 12.7 mph 18.4 mph N/A   Clear
8:15 AM 60.8 °F - 55.4 °F 82% 29.72 in 10.0 mi SW 9.2 mph 16.1 mph N/A   Clear
8:35 AM 61.7 °F - 55.6 °F 80% 29.72 in 10.0 mi SW 13.8 mph 18.4 mph N/A   Clear
8:55 AM 62.6 °F - 55.9 °F 79% 29.72 in 10.0 mi SW 12.7 mph 19.6 mph N/A   Clear
9:15 AM 62.8 °F - 55.8 °F 78% 29.73 in 10.0 mi WSW 13.8 mph 20.7 mph N/A   Clear
9:35 AM 63.1 °F - 55.9 °F 77% 29.74 in 10.0 mi WSW 13.8 mph 20.7 mph N/A   Clear
9:55 AM 64.2 °F - 56.5 °F 76% 29.75 in 10.0 mi WSW 10.4 mph - N/A   Clear
10:15 AM 65.5 °F - 55.9 °F 71% 29.75 in 10.0 mi WSW 11.5 mph - N/A   Clear
10:35 AM 67.8 °F - 55.9 °F 66% 29.76 in 10.0 mi West 15.0 mph 24.2 mph N/A   Clear
10:55 AM 67.1 °F - 55.6 °F 66% 29.76 in 10.0 mi West 9.2 mph - N/A   Clear
11:15 AM 69.4 °F - 56.7 °F 64% 29.76 in 10.0 mi WSW 10.4 mph - N/A   Clear
11:35 AM 70.3 °F - 56.5 °F 61% 29.76 in 10.0 mi WSW 12.7 mph - N/A   Clear
11:55 AM 70.7 °F - 56.1 °F 60% 29.76 in 10.0 mi West 17.3 mph 23.0 mph N/A   Clear
12:15 PM 71.4 °F - 56.1 °F 58% 29.76 in 10.0 mi West 13.8 mph - N/A   Clear
12:35 PM 72.1 °F - 56.5 °F 58% 29.77 in 10.0 mi West 15.0 mph - N/A   Clear
12:55 PM 72.7 °F - 55.9 °F 56% 29.77 in 10.0 mi WSW 15.0 mph - N/A   Clear
1:15 PM 73.4 °F - 56.1 °F 55% 29.78 in 10.0 mi WSW 13.8 mph 19.6 mph N/A   Clear
1:35 PM 74.1 °F - 55.6 °F 52% 29.78 in 10.0 mi WSW 12.7 mph 23.0 mph N/A   Clear
1:55 PM 74.8 °F - 55.4 °F 51% 29.78 in 10.0 mi West 15.0 mph 20.7 mph N/A   Clear
2:15 PM 75.4 °F - 53.6 °F 47% 29.78 in 10.0 mi West 13.8 mph - N/A   Clear
2:35 PM 75.6 °F - 50.9 °F 42% 29.78 in 10.0 mi WSW 16.1 mph 21.9 mph N/A   Clear
2:55 PM 76.1 °F - 51.4 °F 42% 29.78 in 10.0 mi West 15.0 mph 20.7 mph N/A   Clear
3:15 PM 76.1 °F - 48.0 °F 37% 29.78 in 10.0 mi West 17.3 mph 20.7 mph N/A   Clear
3:35 PM 73.4 °F - 47.1 °F 39% 29.79 in 10.0 mi West 13.8 mph 24.2 mph N/A   Clear
3:55 PM 73.8 °F - 43.9 °F 34% 29.80 in 10.0 mi West 15.0 mph 23.0 mph N/A   Clear
4:15 PM 73.9 °F - 40.6 °F 30% 29.80 in 10.0 mi West 18.4 mph 23.0 mph N/A   Clear
4:35 PM 73.0 °F - 39.7 °F 30% 29.82 in 10.0 mi West 13.8 mph 21.9 mph N/A   Clear
4:55 PM 72.5 °F - 40.5 °F 31% 29.82 in 10.0 mi West 12.7 mph - N/A   Clear
5:15 PM 71.6 °F - 37.9 °F 29% 29.83 in 10.0 mi West 17.3 mph 20.7 mph N/A   Clear
5:35 PM 70.7 °F - 36.1 °F 28% 29.84 in 10.0 mi West 13.8 mph 21.9 mph N/A   Clear
5:55 PM 69.3 °F - 35.8 °F 29% 29.85 in 10.0 mi West 11.5 mph 18.4 mph N/A   Clear
6:15 PM 67.3 °F - 35.1 °F 30% 29.86 in 10.0 mi West 9.2 mph - N/A   Clear
6:35 PM 65.3 °F - 34.5 °F 32% 29.86 in 10.0 mi West 9.2 mph - N/A   Clear
6:55 PM 61.2 °F - 36.7 °F 40% 29.87 in 10.0 mi West 5.8 mph - N/A   Clear
7:15 PM 59.2 °F - 37.2 °F 44% 29.88 in 10.0 mi WSW 4.6 mph - N/A   Clear
7:35 PM 57.4 °F - 38.3 °F 49% 29.89 in 10.0 mi West 3.5 mph - N/A   Clear
7:55 PM 53.4 °F - 40.3 °F 61% 29.90 in 10.0 mi West 3.5 mph - N/A   Clear
8:15 PM 54.0 °F - 39.7 °F 59% 29.91 in 10.0 mi Calm Calm - N/A   Clear
8:35 PM 51.4 °F - 39.6 °F 64% 29.91 in 10.0 mi West 4.6 mph - N/A   Clear
8:55 PM 54.3 °F - 39.0 °F 56% 29.91 in 10.0 mi West 4.6 mph - N/A   Clear
9:15 PM 50.5 °F - 39.0 °F 65% 29.92 in 10.0 mi West 3.5 mph - N/A   Clear
9:35 PM 48.0 °F - 39.4 °F 72% 29.92 in 10.0 mi Calm Calm - N/A   Clear
9:55 PM 49.8 °F - 37.6 °F 63% 29.93 in 10.0 mi West 4.6 mph - N/A   Clear
10:15 PM 47.5 °F - 37.6 °F 69% 29.93 in 10.0 mi West 3.5 mph - N/A   Clear
10:35 PM 44.8 °F 42.4 °F 39.2 °F 81% 29.94 in 10.0 mi WSW 4.6 mph - N/A   Clear
10:55 PM 48.0 °F - 37.8 °F 68% 29.95 in 10.0 mi Calm Calm - N/A   Clear
11:15 PM 42.6 °F - 38.3 °F 85% 29.95 in 10.0 mi Calm Calm - N/A   Clear
11:35 PM 42.3 °F - 36.5 °F 80% 29.96 in 10.0 mi Calm Calm - N/A   Clear
11:55 PM 41.4 °F - 36.1 °F 82% 29.97 in 10.0 mi Calm Calm - N/A   Clear